Time,TemperatureF,DewpointF,PressureIn,WindDirection,WindDirectionDegrees,WindSpeedMPH,WindSpeedGustMPH,Humidity,HourlyPrecipIn,Conditions,Clouds,dailyrainin,SoftwareType,DateUTC
2013-06-10 00:03:00,68.0,66.0,29.89,SE,127,0.0,1.0,92,0.14,,,0.14,,2013-06-10 04:03:00,
2013-06-10 00:13:00,68.0,66.0,29.89,SE,127,0.0,1.0,92,0.14,,,0.14,,2013-06-10 04:13:00,
2013-06-10 00:23:00,68.0,66.0,29.89,SE,127,0.0,1.0,93,0.16,,,0.16,,2013-06-10 04:23:00,
2013-06-10 00:33:00,67.0,65.0,29.88,SE,127,0.0,0.0,94,0.19,,,0.21,,2013-06-10 04:33:00,
2013-06-10 00:42:00,67.0,65.0,29.88,SE,127,0.0,0.0,94,0.19,,,0.21,,2013-06-10 04:42:00,
2013-06-10 00:52:00,67.0,66.0,29.88,SE,127,0.0,0.0,95,0.18,,,0.23,,2013-06-10 04:52:00,
2013-06-10 01:02:00,67.0,66.0,29.87,SE,127,0.0,0.0,95,0.17,,,0.31,,2013-06-10 05:02:00,
2013-06-10 01:12:00,67.0,66.0,29.87,SE,127,0.0,0.0,95,0.17,,,0.31,,2013-06-10 05:12:00,
2013-06-10 01:22:00,68.0,67.0,29.87,SE,129,0.0,0.0,96,0.17,,,0.34,,2013-06-10 05:22:00,
2013-06-10 01:32:00,67.0,66.0,29.86,SE,127,0.0,0.0,96,0.15,,,0.36,,2013-06-10 05:32:00,
2013-06-10 01:42:00,67.0,66.0,29.86,SE,127,0.0,0.0,96,0.15,,,0.36,,2013-06-10 05:42:00,
2013-06-10 01:52:00,67.0,66.0,29.86,SE,129,0.0,1.0,96,0.14,,,0.37,,2013-06-10 05:52:00,
2013-06-10 02:02:00,67.0,66.0,29.85,ESE,106,0.0,1.0,96,0.07,,,0.38,,2013-06-10 06:02:00,
2013-06-10 02:12:00,67.0,66.0,29.85,ESE,106,0.0,1.0,96,0.07,,,0.38,,2013-06-10 06:12:00,
2013-06-10 02:22:00,67.0,66.0,29.85,ESE,108,0.0,3.0,96,0.05,,,0.39,,2013-06-10 06:22:00,
2013-06-10 02:32:00,67.0,66.0,29.84,SSW,197,0.0,1.0,96,0.04,,,0.40,,2013-06-10 06:32:00,
2013-06-10 02:42:00,67.0,66.0,29.84,SSW,197,0.0,1.0,96,0.04,,,0.40,,2013-06-10 06:42:00,
2013-06-10 02:53:00,67.0,66.0,29.84,SE,142,0.0,7.0,96,0.03,,,0.41,,2013-06-10 06:53:00,
2013-06-10 03:02:00,67.0,66.0,29.84,South,184,0.0,3.0,96,0.03,,,0.42,,2013-06-10 07:02:00,
2013-06-10 03:12:00,67.0,66.0,29.84,South,184,0.0,3.0,96,0.03,,,0.42,,2013-06-10 07:12:00,
2013-06-10 03:22:00,67.0,66.0,29.83,SE,137,0.0,2.0,96,0.05,,,0.44,,2013-06-10 07:22:00,
2013-06-10 03:32:00,67.0,66.0,29.83,SE,129,1.0,4.0,96,0.09,,,0.49,,2013-06-10 07:32:00,
2013-06-10 03:42:00,67.0,66.0,29.83,SE,129,1.0,4.0,96,0.09,,,0.49,,2013-06-10 07:42:00,
2013-06-10 03:52:00,67.0,66.0,29.82,ESE,111,0.0,1.0,96,0.13,,,0.54,,2013-06-10 07:52:00,
2013-06-10 04:02:00,67.0,66.0,29.81,South,179,0.0,2.0,96,0.15,,,0.57,,2013-06-10 08:02:00,
2013-06-10 04:12:00,67.0,66.0,29.81,South,179,0.0,2.0,96,0.15,,,0.57,,2013-06-10 08:12:00,
2013-06-10 04:22:00,67.0,66.0,29.80,South,179,0.0,0.0,96,0.14,,,0.58,,2013-06-10 08:22:00,
2013-06-10 04:32:00,67.0,66.0,29.80,South,172,0.0,0.0,96,0.08,,,0.58,,2013-06-10 08:32:00,
2013-06-10 04:42:00,67.0,66.0,29.80,South,172,0.0,0.0,96,0.08,,,0.58,,2013-06-10 08:42:00,
2013-06-10 04:52:00,67.0,66.0,29.80,SE,146,0.0,1.0,97,0.04,,,0.58,,2013-06-10 08:52:00,
2013-06-10 05:02:00,67.0,66.0,29.80,SSE,150,0.0,1.0,97,0.04,,,0.61,,2013-06-10 09:02:00,
2013-06-10 05:12:00,67.0,66.0,29.80,SSE,150,0.0,1.0,97,0.04,,,0.61,,2013-06-10 09:12:00,
2013-06-10 05:22:00,66.0,65.0,29.80,ESE,120,1.0,4.0,97,0.07,,,0.65,,2013-06-10 09:22:00,
2013-06-10 05:32:00,67.0,66.0,29.79,SE,139,0.0,1.0,97,0.08,,,0.66,,2013-06-10 09:32:00,
2013-06-10 05:43:00,67.0,66.0,29.79,SE,139,0.0,1.0,97,0.08,,,0.66,,2013-06-10 09:43:00,
2013-06-10 05:53:00,66.0,65.0,29.78,SSE,158,0.0,0.0,97,0.09,,,0.67,,2013-06-10 09:53:00,
2013-06-10 06:03:00,66.0,65.0,29.78,SE,142,0.0,1.0,97,0.05,,,0.67,,2013-06-10 10:03:00,
2013-06-10 06:13:00,66.0,65.0,29.78,SE,142,0.0,1.0,97,0.05,,,0.67,,2013-06-10 10:13:00,
2013-06-10 06:23:00,66.0,65.0,29.78,SSE,155,0.0,2.0,97,0.02,,,0.67,,2013-06-10 10:23:00,
2013-06-10 06:33:00,66.0,65.0,29.78,SSE,155,0.0,0.0,97,0.01,,,0.67,,2013-06-10 10:33:00,
2013-06-10 06:42:00,66.0,65.0,29.78,SSE,155,0.0,0.0,97,0.01,,,0.67,,2013-06-10 10:42:00,
2013-06-10 06:52:00,66.0,65.0,29.78,SSE,155,0.0,1.0,97,0.00,,,0.67,,2013-06-10 10:52:00,
2013-06-10 07:03:00,67.0,66.0,29.78,SE,144,0.0,1.0,97,0.00,,,0.67,,2013-06-10 11:03:00,
2013-06-10 07:12:00,67.0,66.0,29.78,SE,144,0.0,1.0,97,0.00,,,0.67,,2013-06-10 11:12:00,
2013-06-10 07:22:00,67.0,66.0,29.78,SE,146,0.0,2.0,97,0.00,,,0.67,,2013-06-10 11:22:00,
2013-06-10 07:32:00,67.0,66.0,29.78,SW,221,0.0,1.0,97,0.00,,,0.67,,2013-06-10 11:32:00,
2013-06-10 07:42:00,67.0,66.0,29.78,SW,221,0.0,1.0,97,0.00,,,0.67,,2013-06-10 11:42:00,
2013-06-10 07:52:00,67.0,66.0,29.78,SSE,150,0.0,1.0,97,0.00,,,0.67,,2013-06-10 11:52:00,
2013-06-10 08:02:00,67.0,66.0,29.78,SW,216,1.0,2.0,97,0.01,,,0.68,,2013-06-10 12:02:00,
2013-06-10 08:12:00,67.0,66.0,29.78,SW,216,1.0,2.0,97,0.01,,,0.68,,2013-06-10 12:12:00,
2013-06-10 08:22:00,67.0,66.0,29.78,SSW,195,1.0,3.0,97,0.12,,,0.79,,2013-06-10 12:22:00,
2013-06-10 08:32:00,67.0,66.0,29.78,SSW,207,3.0,7.0,96,0.12,,,0.79,,2013-06-10 12:32:00,
2013-06-10 08:42:00,67.0,66.0,29.78,SSW,207,3.0,7.0,96,0.12,,,0.79,,2013-06-10 12:42:00,
2013-06-10 08:52:00,66.0,65.0,29.79,SSW,198,4.0,7.0,95,0.12,,,0.79,,2013-06-10 12:52:00,
2013-06-10 09:02:00,66.0,65.0,29.78,SW,214,3.0,7.0,96,0.11,,,0.79,,2013-06-10 13:02:00,
2013-06-10 09:12:00,66.0,65.0,29.78,SW,214,3.0,7.0,96,0.11,,,0.79,,2013-06-10 13:12:00,
2013-06-10 09:22:00,66.0,65.0,29.79,South,191,2.0,6.0,96,0.00,,,0.79,,2013-06-10 13:22:00,
2013-06-10 09:32:00,67.0,66.0,29.78,SSW,212,2.0,7.0,95,0.00,,,0.79,,2013-06-10 13:32:00,
2013-06-10 09:42:00,67.0,66.0,29.78,SSW,212,2.0,7.0,95,0.00,,,0.79,,2013-06-10 13:42:00,
2013-06-10 09:52:00,67.0,65.0,29.79,SW,221,3.0,7.0,94,0.00,,,0.79,,2013-06-10 13:52:00,
2013-06-10 10:02:00,67.0,65.0,29.79,SW,214,5.0,9.0,93,0.00,,,0.79,,2013-06-10 14:02:00,
2013-06-10 10:12:00,67.0,65.0,29.79,SW,214,5.0,9.0,93,0.00,,,0.79,,2013-06-10 14:12:00,
2013-06-10 10:22:00,67.0,65.0,29.79,SSW,192,3.0,7.0,94,0.00,,,0.79,,2013-06-10 14:22:00,
2013-06-10 10:32:00,67.0,65.0,29.80,SSW,193,4.0,7.0,93,0.00,,,0.79,,2013-06-10 14:32:00,
2013-06-10 10:42:00,67.0,65.0,29.80,SSW,193,4.0,7.0,93,0.00,,,0.79,,2013-06-10 14:42:00,
2013-06-10 10:52:00,68.0,66.0,29.79,South,187,4.0,6.0,92,0.00,,,0.79,,2013-06-10 14:52:00,
2013-06-10 11:03:00,68.0,65.0,29.79,SSW,209,5.0,8.0,91,0.00,,,0.79,,2013-06-10 15:03:00,
2013-06-10 11:12:00,68.0,65.0,29.79,SSW,209,5.0,8.0,91,0.00,,,0.79,,2013-06-10 15:12:00,
2013-06-10 11:22:00,69.0,66.0,29.80,SSW,202,5.0,8.0,90,0.00,,,0.79,,2013-06-10 15:22:00,
2013-06-10 11:33:00,69.0,66.0,29.80,WSW,247,4.0,8.0,90,0.00,,,0.79,,2013-06-10 15:33:00,
2013-06-10 11:43:00,69.0,66.0,29.80,WSW,247,4.0,8.0,90,0.00,,,0.79,,2013-06-10 15:43:00,
2013-06-10 11:53:00,69.0,66.0,29.79,WSW,246,3.0,7.0,91,0.00,,,0.79,,2013-06-10 15:53:00,
2013-06-10 12:03:00,70.0,67.0,29.79,WSW,250,2.0,8.0,90,0.00,,,0.79,,2013-06-10 16:03:00,
2013-06-10 12:13:00,70.0,67.0,29.79,WSW,250,2.0,8.0,90,0.00,,,0.79,,2013-06-10 16:13:00,
2013-06-10 12:23:00,72.0,67.0,29.79,WSW,250,4.0,11.0,83,0.00,,,0.79,,2013-06-10 16:23:00,
2013-06-10 12:33:00,72.0,65.0,29.79,NW,304,3.0,7.0,80,0.00,,,0.79,,2013-06-10 16:33:00,
2013-06-10 12:43:00,72.0,65.0,29.79,NW,304,3.0,7.0,80,0.00,,,0.79,,2013-06-10 16:43:00,
2013-06-10 12:53:00,73.0,66.0,29.79,West,259,5.0,11.0,79,0.00,,,0.79,,2013-06-10 16:53:00,
2013-06-10 13:03:00,74.0,66.0,29.78,South,187,4.0,10.0,76,0.00,,,0.79,,2013-06-10 17:03:00,
2013-06-10 13:14:00,74.0,66.0,29.78,South,187,4.0,10.0,76,0.00,,,0.79,,2013-06-10 17:14:00,
2013-06-10 13:27:00,75.0,65.0,29.78,SSW,210,4.0,11.0,72,0.00,,,0.79,,2013-06-10 17:27:00,
2013-06-10 13:38:00,75.0,65.0,29.78,SSE,148,6.0,11.0,70,0.00,,,0.79,,2013-06-10 17:38:00,
2013-06-10 13:48:00,76.0,65.0,29.78,SW,235,6.0,11.0,69,0.00,,,0.79,,2013-06-10 17:48:00,
2013-06-10 13:58:00,76.0,65.0,29.78,SW,235,6.0,11.0,69,0.00,,,0.79,,2013-06-10 17:58:00,
2013-06-10 14:07:00,76.0,65.0,29.78,SSW,195,5.0,12.0,68,0.00,,,0.79,,2013-06-10 18:07:00,
2013-06-10 14:14:00,76.0,65.0,29.78,SSW,195,5.0,12.0,68,0.00,,,0.79,,2013-06-10 18:14:00,
2013-06-10 14:25:00,76.0,65.0,29.78,West,275,4.0,11.0,68,0.00,,,0.79,,2013-06-10 18:25:00,
2013-06-10 14:35:00,76.0,64.0,29.78,WSW,248,5.0,9.0,67,0.00,,,0.79,,2013-06-10 18:35:00,
2013-06-10 14:48:00,76.0,64.0,29.78,WSW,248,5.0,9.0,67,0.00,,,0.79,,2013-06-10 18:48:00,
2013-06-10 14:55:00,77.0,64.0,29.77,SW,221,5.0,12.0,65,0.00,,,0.79,,2013-06-10 18:55:00,
2013-06-10 15:03:00,77.0,63.0,29.77,SSW,210,4.0,10.0,63,0.00,,,0.79,,2013-06-10 19:03:00,
2013-06-10 15:13:00,77.0,63.0,29.77,SSW,210,4.0,10.0,63,0.00,,,0.79,,2013-06-10 19:13:00,
2013-06-10 15:22:00,78.0,63.0,29.78,SW,216,5.0,10.0,60,0.00,,,0.79,,2013-06-10 19:22:00,
2013-06-10 15:33:00,77.0,62.0,29.78,SSW,196,6.0,10.0,60,0.00,,,0.79,,2013-06-10 19:33:00,
2013-06-10 15:43:00,77.0,62.0,29.78,SSW,196,6.0,10.0,60,0.00,,,0.79,,2013-06-10 19:43:00,
2013-06-10 15:53:00,77.0,63.0,29.78,WSW,238,3.0,8.0,61,0.00,,,0.79,,2013-06-10 19:53:00,
2013-06-10 16:03:00,77.0,64.0,29.77,SW,229,5.0,9.0,64,0.00,,,0.79,,2013-06-10 20:03:00,
2013-06-10 16:13:00,77.0,64.0,29.77,SW,229,5.0,9.0,64,0.00,,,0.79,,2013-06-10 20:13:00,
2013-06-10 16:23:00,77.0,63.0,29.77,WSW,247,3.0,10.0,62,0.00,,,0.79,,2013-06-10 20:23:00,
2013-06-10 16:32:00,76.0,63.0,29.77,WSW,238,3.0,7.0,64,0.00,,,0.79,,2013-06-10 20:32:00,
2013-06-10 16:43:00,76.0,63.0,29.77,WSW,238,3.0,7.0,64,0.00,,,0.79,,2013-06-10 20:43:00,
2013-06-10 16:53:00,73.0,65.0,29.79,West,271,8.0,14.0,76,0.02,,,0.81,,2013-06-10 20:53:00,
2013-06-10 17:02:00,69.0,65.0,29.78,SSW,212,2.0,6.0,86,0.05,,,0.84,,2013-06-10 21:02:00,
2013-06-10 17:12:00,69.0,65.0,29.78,SSW,212,2.0,6.0,86,0.05,,,0.84,,2013-06-10 21:12:00,
2013-06-10 17:23:00,70.0,66.0,29.78,WNW,301,2.0,4.0,87,0.05,,,0.84,,2013-06-10 21:23:00,
2013-06-10 17:34:00,71.0,66.0,29.78,West,275,1.0,5.0,84,0.05,,,0.84,,2013-06-10 21:34:00,
2013-06-10 17:43:00,71.0,66.0,29.78,West,275,1.0,5.0,84,0.05,,,0.84,,2013-06-10 21:43:00,
2013-06-10 17:53:00,72.0,65.0,29.78,NW,304,2.0,7.0,80,0.01,,,0.84,,2013-06-10 21:53:00,
2013-06-10 18:03:00,72.0,66.0,29.78,WSW,240,3.0,5.0,82,0.00,,,0.84,,2013-06-10 22:03:00,
2013-06-10 18:13:00,72.0,66.0,29.78,WSW,240,3.0,5.0,82,0.00,,,0.84,,2013-06-10 22:13:00,
2013-06-10 18:23:00,71.0,66.0,29.78,WSW,248,1.0,5.0,84,0.00,,,0.84,,2013-06-10 22:23:00,
2013-06-10 18:33:00,71.0,66.0,29.79,West,265,1.0,3.0,85,0.00,,,0.84,,2013-06-10 22:33:00,
2013-06-10 18:42:00,71.0,66.0,29.79,West,265,1.0,3.0,85,0.00,,,0.84,,2013-06-10 22:42:00,
2013-06-10 18:52:00,71.0,66.0,29.79,West,262,1.0,2.0,85,0.00,,,0.84,,2013-06-10 22:52:00,
2013-06-10 19:03:00,71.0,66.0,29.79,SW,226,1.0,2.0,85,0.00,,,0.84,,2013-06-10 23:03:00,
2013-06-10 19:12:00,71.0,66.0,29.79,SW,226,1.0,2.0,85,0.00,,,0.84,,2013-06-10 23:12:00,
2013-06-10 19:22:00,71.0,66.0,29.79,SW,214,0.0,3.0,85,0.00,,,0.84,,2013-06-10 23:22:00,
2013-06-10 19:32:00,71.0,67.0,29.79,South,182,0.0,1.0,87,0.00,,,0.84,,2013-06-10 23:32:00,
2013-06-10 19:42:00,71.0,67.0,29.79,South,182,0.0,1.0,87,0.00,,,0.84,,2013-06-10 23:42:00,
2013-06-10 19:52:00,71.0,67.0,29.79,SSW,213,1.0,4.0,86,0.00,,,0.84,,2013-06-10 23:52:00,
2013-06-10 20:02:00,72.0,67.0,29.80,WSW,241,0.0,3.0,85,0.00,,,0.84,,2013-06-11 00:02:00,
2013-06-10 20:13:00,72.0,67.0,29.79,WSW,248,0.0,2.0,85,0.00,,,0.84,,2013-06-11 00:13:00,
2013-06-10 20:22:00,72.0,67.0,29.79,WSW,248,0.0,2.0,85,0.00,,,0.84,,2013-06-11 00:22:00,
2013-06-10 20:32:00,73.0,68.0,29.80,WSW,250,1.0,2.0,83,0.00,,,0.84,,2013-06-11 00:32:00,
2013-06-10 20:43:00,73.0,68.0,29.80,WSW,250,1.0,2.0,83,0.00,,,0.84,,2013-06-11 00:43:00,
2013-06-10 20:52:00,74.0,68.0,29.80,NW,308,3.0,5.0,81,0.00,,,0.84,,2013-06-11 00:52:00,
2013-06-10 21:02:00,73.0,66.0,29.80,NNE,12,4.0,9.0,79,0.00,,,0.84,,2013-06-11 01:02:00,
2013-06-10 21:12:00,73.0,66.0,29.80,NNE,12,4.0,9.0,79,0.00,,,0.84,,2013-06-11 01:12:00,
2013-06-10 21:22:00,72.0,65.0,29.81,NNE,17,4.0,10.0,80,0.00,,,0.84,,2013-06-11 01:22:00,
2013-06-10 21:33:00,70.0,65.0,29.81,West,276,3.0,6.0,83,0.00,,,0.84,,2013-06-11 01:33:00,
2013-06-10 21:42:00,70.0,65.0,29.81,West,276,3.0,6.0,83,0.00,,,0.84,,2013-06-11 01:42:00,
2013-06-10 21:53:00,69.0,65.0,29.81,WNW,303,4.0,6.0,86,0.00,,,0.84,,2013-06-11 01:53:00,
2013-06-10 22:02:00,68.0,64.0,29.82,NW,320,2.0,5.0,88,0.00,,,0.84,,2013-06-11 02:02:00,
2013-06-10 22:12:00,68.0,64.0,29.82,NW,320,2.0,5.0,88,0.00,,,0.84,,2013-06-11 02:12:00,
2013-06-10 22:22:00,67.0,64.0,29.82,NNW,329,2.0,5.0,89,0.00,,,0.84,,2013-06-11 02:22:00,
2013-06-10 22:32:00,67.0,64.0,29.83,NW,321,2.0,3.0,90,0.00,,,0.84,,2013-06-11 02:32:00,
2013-06-10 22:42:00,66.0,63.0,29.84,West,274,1.0,3.0,91,0.00,,,0.84,,2013-06-11 02:42:00,
2013-06-10 22:52:00,66.0,63.0,29.84,West,274,1.0,3.0,91,0.00,,,0.84,,2013-06-11 02:52:00,
2013-06-10 23:03:00,66.0,64.0,29.85,NW,311,3.0,5.0,92,0.00,,,0.84,,2013-06-11 03:03:00,
2013-06-10 23:13:00,66.0,64.0,29.85,NW,311,3.0,5.0,92,0.00,,,0.84,,2013-06-11 03:13:00,
2013-06-10 23:22:00,66.0,64.0,29.85,NW,325,1.0,4.0,92,0.00,,,0.84,,2013-06-11 03:22:00,
2013-06-10 23:32:00,65.0,63.0,29.85,NNW,338,1.0,3.0,93,0.00,,,0.84,,2013-06-11 03:32:00,
2013-06-10 23:43:00,65.0,63.0,29.85,West,264,1.0,3.0,93,0.00,,,0.84,,2013-06-11 03:43:00,
2013-06-10 23:53:00,65.0,63.0,29.85,West,264,1.0,3.0,93,0.00,,,0.84,,2013-06-11 03:53:00,